Flag for Switzerland Weather past 2 weeks in Arth, Schwyz, Switzerland

Now
88 °F

Scattered clouds.


Feels Like: 93 °F
Forecast: 48 / 62 °F
Wind: 2 mph from South

Location: Altdorf

Current Time: Jul 7, 2015 at 6:04:53 PM

Latest Report: Jul 7, 2015 at 5:00 PM


Visibility: 13 mi

Pressure: 29.76 "Hg

Humidity: 55%

Dew point: 70 °F

Location of ArthLocation

Historic Weather in Arth — Graph

°F

Arth temperature yesterday

Maximum temperature yesterday: 82 °F (at 6:00 PM)
Minimum temperature yesterday: 68 °F (at 12:00 AM)
Average temperature yesterday: 75 °F

Past Weeks' High & Low Weather Summary

 TemperatureHumidityPressure
High91 °F (Jul 5, 5:00 PM)95% (Jun 28, 12:00 AM)30.24 "Hg (Jun 28, 12:00 AM)
Low50 °F (Jun 24, 8:00 AM)38% (Jul 3, 8:00 PM)29.73 "Hg (Jun 22, 11:00 PM)
Average71 °F67%30.08 "Hg
* Reported Jun 22 4:00 PM — Jul 7 4:00 PM, Arth, Weather by CustomWeather, © 2015

Note: Actual official high and low records may vary slightly from our data, if they occured in-between our weather recording intervals... More about our weather records

Advertising

Arth weather history for previous 24 hours

 ConditionsComfort  
Time TempWeatherWind HumidityBarometerVisibility
4:00 PM
Tue, Jul 7
89 °FHot.2 mph57%29.79 "HgN/A
3:00 PM87 °FWarm.2 mph61%29.82 "HgN/A
2:00 PM85 °FScattered clouds.3 mph54%29.85 "Hg14 mi
1:00 PM85 °FWarm.3 mph61%29.87 "HgN/A
12:00 PM83 °FWarm.5 mph64%29.88 "HgN/A
11:00 AM78 °FPassing clouds.5 mph62%29.91 "Hg16 mi
10:00 AM76 °FMild.5 mph71%29.93 "HgN/A
9:00 AM75 °FMild.2 mph77%29.96 "HgN/A
8:00 AM68 °FPassing clouds.2 mph90%29.99 "Hg16 mi
7:00 AM68 °FMild.1 mph87%29.98 "HgN/A
6:00 AM68 °FMild.2 mph86%30.00 "HgN/A
4:00 AM66 °FMild.2 mph95%30.01 "HgN/A
3:00 AM69 °FMild.1 mph89%30.01 "HgN/A
2:00 AM69 °FPassing clouds.2 mph92%30.02 "Hg12 mi
1:00 AM73 °FMild.1 mph80%30.02 "HgN/A
12:00 AM73 °FMild.No wind81%30.03 "HgN/A
10:00 PM
Mon, Jul 6
76 °FMild.3 mph77%30.03 "HgN/A
9:00 PM80 °FWarm.No wind70%30.02 "HgN/A
8:00 PM80 °FScattered clouds.1 mph71%30.02 "Hg12 mi
7:00 PM82 °FWarm.2 mph64%30.01 "HgN/A
6:00 PM82 °FWarm.1 mph70%30.01 "HgN/A
Weather by CustomWeather, © 2015

See weather overviewHow to use our weather pages